Location: Hamilton
(37.7830°S, 175.2830°E)
Time: 11:38:45
(UTC+13:00)

ADEOS Rocket - Pass Details

Date: 24 January 2019
Orbit: 859 x 1307 km, 98.7° (Epoch: 19 February)

Event Time Altitude Azimuth Distance (km) Brightness Sun altitude
Exits shadow 23:05:50 20° 331° (NNW) 1,964 4.4 -23.6°
Maximum altitude 23:09:05 35° 278° (W) 1,388 4.0 -24.0°
Drops below altitude 10° 23:14:07 10° 212° (SSW) 2,524 6.2 -24.6°
Sets 23:16:43 0° 203° (SSW) 3,474 7.2 -24.9°
